Flag for Estonia Weather past 2 weeks in Tallinn, Estonia

Now
72 °F

Thundershowers. Scattered clouds.


Feels Like: 69 °F
Forecast: 64 / 81 °F
Wind: 7 mph from Southwest

Location: Tallinn

Current Time: Jul 29, 2014 at 3:45:41 PM

Latest Report: Jul 29, 2014 at 2:50 PM


Visibility: N/A

Pressure: 29.83 "Hg

Humidity: 88%

Dew point: 68 °F

Location of TallinnLocation

Historic Weather in Tallinn — Graph

°F

Tallinn temperature yesterday

Maximum temperature yesterday: 88 °F (at 1:20 PM)
Minimum temperature yesterday: 63 °F (at 4:20 AM)
Average temperature yesterday: 76 °F

Past Weeks' High & Low Weather Summary

 TemperatureHumidityPressure
High88 °F (Jul 27, 2:20 PM)100% (Jul 15, 12:50 AM)30.24 "Hg (Jul 15, 12:50 AM)
Low39 °F (Jul 17, 2:20 AM)31% (Jul 27, 2:20 PM)29.83 "Hg (Jul 29, 12:50 PM)
Average70 °F71%30.08 "Hg
* Reported Jul 14 2:20 PM — Jul 29 2:20 PM, Tallinn, Weather by CustomWeather, © 2014

Note: Actual official high and low records may vary slightly from our data, if they occured in-between our weather recording intervals... More about our weather records

Advertising

Tallinn weather history for previous 24 hours

 ConditionsComfort  
Time TempWeatherWind HumidityBarometerVisibility
2:20 PM
Jul 29
72 °FScattered clouds.6 mph88%29.86 "HgN/A
1:50 PM70 °FThunderstorms. Broken clouds.15 mph88%29.86 "Hg5 mi
1:20 PM79 °FThundershowers. Broken clouds.5 mph61%29.83 "Hg6 mi
12:50 PM81 °FThundershowers. Scattered clouds.8 mph58%29.83 "HgN/A
12:20 PM82 °FPassing clouds.6 mph55%29.86 "HgN/A
11:50 AM81 °FPassing clouds.6 mph62%29.86 "HgN/A
11:20 AM79 °FPassing clouds.5 mph65%29.86 "HgN/A
10:50 AM79 °FPassing clouds.6 mph65%29.86 "HgN/A
10:20 AM77 °FSunny.5 mph74%29.86 "Hg10 mi
9:50 AM75 °FPassing clouds.6 mph78%29.86 "HgN/A
9:20 AM75 °FPassing clouds.6 mph78%29.86 "HgN/A
8:50 AM73 °FSunny.6 mph83%29.86 "Hg10 mi
8:20 AM72 °FSunny.3 mph88%29.86 "Hg10 mi
7:50 AM70 °FSunny.5 mph88%29.86 "Hg10 mi
7:20 AM66 °FPassing clouds.3 mph94%29.86 "HgN/A
6:50 AM66 °FSunny.2 mph94%29.86 "Hg10 mi
6:20 AM66 °FSunny.No wind88%29.86 "Hg10 mi
5:50 AM64 °FPassing clouds.3 mph94%29.86 "HgN/A
5:20 AM64 °FPassing clouds.3 mph94%29.89 "HgN/A
4:20 AM66 °FClear.6 mph88%29.89 "Hg10 mi
3:50 AM66 °FPassing clouds.3 mph88%29.89 "HgN/A
3:20 AM66 °FPassing clouds.3 mph88%29.89 "HgN/A
2:50 AM68 °FPassing clouds.6 mph83%29.89 "HgN/A
2:20 AM68 °FClear.5 mph83%29.89 "Hg10 mi
1:50 AM66 °FClear.3 mph83%29.89 "Hg10 mi
1:20 AM68 °FPassing clouds.3 mph83%29.89 "HgN/A
12:50 AM68 °FClear.2 mph83%29.89 "Hg10 mi
12:20 AM70 °FClear.6 mph78%29.89 "Hg10 mi
11:50 PM
Jul 28
72 °FClear.7 mph73%29.92 "Hg10 mi
11:20 PM73 °FClear.7 mph69%29.92 "Hg10 mi
10:50 PM72 °FSunny.2 mph78%29.92 "Hg10 mi
10:20 PM72 °FSunny.2 mph78%29.92 "Hg10 mi
9:50 PM75 °FSunny.2 mph69%29.92 "Hg10 mi
9:20 PM77 °FSunny.2 mph65%29.92 "Hg10 mi
8:50 PM79 °FPassing clouds.6 mph61%29.92 "HgN/A
8:20 PM79 °FPassing clouds.2 mph58%29.92 "HgN/A
7:50 PM79 °FPassing clouds.6 mph58%29.92 "HgN/A
7:20 PM84 °FPassing clouds.7 mph43%29.92 "HgN/A
6:50 PM84 °FPassing clouds.7 mph35%29.92 "HgN/A
6:20 PM86 °FPassing clouds.8 mph35%29.92 "HgN/A
5:50 PM84 °FPassing clouds.8 mph40%29.92 "HgN/A
5:20 PM84 °FPassing clouds.7 mph40%29.92 "HgN/A
4:50 PM81 °FScattered showers. Scattered clouds.16 mph42%29.95 "HgN/A
4:20 PM82 °FScattered showers. Passing clouds.7 mph55%29.95 "HgN/A
3:50 PM81 °FPassing clouds.13 mph54%29.95 "HgN/A
3:20 PM86 °FPassing clouds.5 mph35%29.95 "HgN/A
Weather by CustomWeather, © 2014

See weather overviewHow to use our weather pages